Weather observations for the past three days for
Concord Municipal Airport
Imperial (Metric)
Date Time (edt) Wind (mph) Vis. (mi.) Weather Sky Cond. Temperature (ºF) Relative Humidity Wind Chill (°F) Heat Index (°F) Pressure Precipitation (in)
Air Dwpt 6 hour altimeter (in) sea level (mb) 1 hr 3 hr 6 hr
Max. Min.
15 03:51 Calm 10.00 Fair CLR 62.1 61 96% 29.89 1011.8
15 02:51 Calm 10.00 Fair CLR 63 61 93% 29.89 1011.9
15 01:51 Calm 10.00 Fair CLR 64 62.1 82 63 93% 29.9 1012.4
15 00:51 Calm 10.00 Fair CLR 64.9 63 93% 29.91 1012.8
14 23:51 Calm 10.00 Fair CLR 68 63 84% 29.91 1012.8
14 22:51 Calm 10.00 Fair CLR 71.1 63 76% 29.91 1012.8
14 21:51 SW 5 10.00 Fair CLR 75.9 64 67% 78 29.91 1012.7
14 20:51 SW 6 10.00 Fair CLR 79 63 58% 81 29.91 1012.5
14 19:51 S 5 10.00 Fair CLR 82 63 90 82 53% 83 29.91 1012.7
14 18:51 SW 6 10.00 Partly Cloudy SCT065 84.9 63 48% 86 29.91 1012.6
14 17:51 Vrbl 3 10.00 Partly Cloudy SCT065 87.1 60.1 40% 87 29.91 1012.6
14 16:51 N 6 10.00 Fair CLR 89.1 61 39% 89 29.91 1012.8
14 15:51 Vrbl 6 10.00 A Few Clouds FEW060 88 62.1 42% 88 29.93 1013.5
14 14:51 Vrbl 7 10.00 Fair CLR 89.1 61 39% 89 29.95 1014.0
14 13:51 W 8 10.00 A Few Clouds FEW055 88 61 88 72 40% 88 29.97 1014.6
14 12:51 Vrbl 3 10.00 Partly Cloudy SCT050 86 63 46% 87 29.99 1015.5
14 11:51 N 5 10.00 Fair CLR 84.9 64 50% 86 30.01 1016.0
14 10:51 N 8 10.00 Fair CLR 82.9 64 53% 84 30.02 1016.5
14 09:51 Vrbl 5 10.00 Fair CLR 80.1 66 62% 82 30.03 1016.9
14 08:51 NW 3 10.00 Fair CLR 75.9 66.9 74% 77 30.04 1017.2
14 07:51 Vrbl 3 10.00 Fair CLR 72 66.9 72 63 84% 30.05 1017.4
14 06:51 Calm 10.00 Fair CLR 66.9 66 97% 30.05 1017.4
14 05:51 Calm 10.00 Fair CLR 63 63 100% 30.04 1017.2
14 04:51 Calm 6.00 Fog/Mist BKN003 64 63 96% 30.04 1017.1
14 03:51 Calm 10.00 Fair CLR 64.9 64 97% 30.03 1016.9
14 02:51 Calm 9.00 Fair CLR 64.9 64 97% 30.03 1016.8
14 01:51 Calm 10.00 Fair CLR 68 66.9 78.1 66 96% 30.04 1016.9
14 00:51 Calm 10.00 Fair CLR 66 66 100% 30.05 1017.6
13 23:51 Calm 10.00 Fair CLR 68 68 100% 30.05 1017.6
13 22:51 SE 3 10.00 Fair CLR 69.1 68 96% 30.05 1017.5
13 21:51 Calm 10.00 Fair CLR 72 69.1 91% 30.06 1017.7
13 20:51 Calm 10.00 Fair CLR 75 69.1 82% 75 30.05 1017.4
13 19:51 NW 3 10.00 Fair CLR 78.1 68 90 78.1 71% 80 30.04 1017.1
13 18:51 N 5 10.00 Partly Cloudy SCT050 SCT060 81 66.9 62% 83 30.03 1016.8
13 17:51 Vrbl 6 10.00 Fair CLR 86 66 51% 88 30.01 1016.0
13 16:51 Calm 10.00 A Few Clouds FEW120 87.1 64.9 48% 89 30.01 1016.1
13 15:51 Calm 10.00 A Few Clouds FEW050 89.1 66 47% 92 30.04 1016.9
13 14:51 Vrbl 6 10.00 A Few Clouds FEW049 FEW070 87.1 66 50% 89 30.05 1017.3
13 13:51 S 5 10.00 Mostly Cloudy BKN049 87.1 68 88 73.9 53% 91 30.07 1018.0
13 12:51 SW 6 10.00 A Few Clouds FEW044 87.1 68 53% 91 30.09 1018.8
13 11:51 SW 6 10.00 A Few Clouds FEW031 84.9 69.1 59% 89 30.12 1019.8
13 10:51 SW 6 10.00 A Few Clouds FEW020 81 70 69% 84 30.14 1020.2
13 09:51 SW 6 10.00 A Few Clouds FEW017 79 73 82% 82 30.14 1020.3
13 08:51 Vrbl 3 10.00 A Few Clouds FEW038 77 72 85% 78 30.15 1020.7
13 07:51 Calm 10.00 A Few Clouds FEW060 73.9 73 75 71.1 97% 30.16 1020.9 0.16
13 05:51 Calm 8.00 Overcast FEW030 BKN041 OVC060 72 72 100% 30.15 1020.7
13 04:51 Calm 10.00 Overcast FEW044 BKN090 OVC110 73 71.1 94% 30.15 1020.8 0.16
13 03:51 Calm 8.00 Light Rain FEW027 SCT110 72 71.1 97% 30.15 1020.6 0.16
13 02:51 S 5 10.00 Light Rain OVC060 73.9 71.1 91% 30.15 1020.6
13 01:51 SE 5 10.00 Partly Cloudy FEW070 FEW085 SCT120 73.9 71.1 84 73.9 91% 30.15 1020.6
13 00:51 S 3 10.00 Fair CLR 75 71.1 88% 75 30.15 1020.8
12 23:51 S 3 10.00 Fair CLR 75.9 71.1 85% 76 30.16 1021.1
12 22:51 S 3 10.00 A Few Clouds FEW100 77 70 79% 79 30.16 1021.2
12 21:51 S 5 10.00 Partly Cloudy SCT060 79 70 74% 82 30.15 1020.7
12 20:51 S 5 10.00 Mostly Cloudy BKN065 82 69.1 65% 85 30.13 1020.0
12 19:51 SW 7 10.00 Overcast OVC060 84 69.1 91.9 84 61% 88 30.13 1020.0
12 18:51 SW 7 10.00 Mostly Cloudy BKN060 BKN075 86 68 55% 89 30.11 1019.2
12 17:51 SW 3 10.00 A Few Clouds FEW055 88 66.9 50% 91 30.1 1019.0
12 16:51 SW 10 10.00 Mostly Cloudy BKN060 BKN070 88 64.9 46% 90 30.1 1019.0
12 15:51 SW 7 10.00 Mostly Cloudy BKN060 89.1 66 47% 92 30.1 1019.2
12 14:51 SW 9 10.00 Mostly Cloudy BKN050 88 66.9 50% 91 30.11 1019.5
12 13:51 SW 8 G 18 10.00 A Few Clouds FEW055 89.1 66.9 90 75.9 48% 92 30.12 1019.6
12 12:51 SW 13 10.00 Mostly Cloudy FEW047 BKN055 89.1 66.9 48% 92 30.13 1020.0
12 11:51 SW 9 10.00 A Few Clouds FEW055 86 66.9 53% 89 30.12 1019.9
12 10:51 Vrbl 5 10.00 Mostly Cloudy SCT036 BKN046 82.9 68 61% 86 30.13 1020.1
12 09:51 W 7 10.00 Fair CLR 82 68 63% 85 30.14 1020.5
12 08:51 W 3 10.00 Mostly Cloudy BKN050 80.1 68 67% 83 30.14 1020.4
12 07:51 Calm 10.00 A Few Clouds FEW050 75.9 66.9 75.9 66.9 74% 77 30.13 1020.1
12 06:51 Calm 10.00 Fair CLR 72 66.9 84% 30.12 1019.6
12 05:51 Calm 10.00 Fair CLR 69.1 66 90% 30.1 1018.9
12 04:51 Calm 10.00 Fair CLR 68 66 93% 30.08 1018.5
Date Time (edt) Wind (mph) Vis. (mi.) Weather Sky Cond. Air Dwpt Max. Min. Relative Humidity Wind Chill (°F) Heat Index (°F) altimeter (in) sea level (mb) 1 hr 3 hr 6 hr
6 hour
Temperature (ºF) Pressure Precipitation (in)